Weather History for Danbury, CT

Change the Weather History Date:

Thursday, April 3, 2014

  Actual Average Record
Temperature  
Mean Temperature 44 °F -  
Max Temperature 60 °F 55 °F 74 °F (1981)
Min Temperature 30 °F 33 °F 19 °F (2008)
Degree Days  
Heating Degree Days 20    
Moisture  
Dew Point 25 °F    
Average Humidity 52    
Maximum Humidity 96    
Minimum Humidity 20    
Precipitation  
Precipitation 0.00 in - - ()
Sea Level Pressure  
Sea Level Pressure 30.09 in    
Wind  
Wind Speed 3 mph (NNE)    
Max Wind Speed 10 mph    
Max Gust Speed -    
Visibility 9 miles    
Events      
Averages and records for this station are not official NWS values.
T = Trace of Precipitation, MM = Missing Value Source: NWS Daily Summary

Daily Weather History Graph

Daily Weather History Graph

Search for Another Location

Airport:

Trip Planner

Search our weather history database for the weather conditions in past years. The results will help you decide how hot, cold, wet, or windy it might be!

Date:

Astronomy

Apr. 03, 2014 Rise Set
Actual Time 6:33 AM EDT 7:21 PM EDT
Civil Twilight 6:05 AM EDT 7:49 PM EDT
Nautical Twilight 5:32 AM EDT 8:22 PM EDT
Astronomical Twilight 4:58 AM EDT 8:57 PM EDT
Moon 8:58 AM EDT (4/3) 11:40 PM EDT (4/3)
Length of Visible Light 13h 43m
Length of Day
12h 47m
Waxing Crescent, 17% of the Moon is Illuminated
Apr 3
Waxing Crescent
Apr 7
First Quarter
Apr 15
Full
Apr 22
Last Quarter
Apr 29
New

Hourly Weather History & Observations

Time (EDT) Temp. Windchill Dew Point Humidity Pressure Visibility Wind Dir Wind Speed Gust Speed Precip Events Conditions
12:53 AM 34.0 °F - 32.0 °F 92% 30.11 in 7.0 mi Calm Calm - N/A   Clear
1:53 AM 36.0 °F - 34.0 °F 93% 30.11 in 8.0 mi Calm Calm - N/A   Clear
2:53 AM 35.1 °F - 34.0 °F 96% 30.11 in 8.0 mi Calm Calm - N/A   Clear
3:53 AM 35.1 °F - 33.1 °F 92% 30.10 in 8.0 mi Calm Calm - N/A   Clear
4:53 AM 33.1 °F - 32.0 °F 96% 30.11 in 6.0 mi Calm Calm - N/A   Clear
5:53 AM 30.9 °F - 28.9 °F 92% 30.12 in 9.0 mi Calm Calm - N/A   Clear
6:53 AM 30.0 °F - 28.9 °F 96% 30.13 in 6.0 mi Calm Calm - N/A   Clear
7:53 AM 36.0 °F - 32.0 °F 86% 30.14 in 9.0 mi Calm Calm - N/A   Clear
8:37 AM 42.1 °F 37.7 °F 28.0 °F 58% 30.14 in 10.0 mi ENE 6.9 mph - N/A   Clear
8:53 AM 42.1 °F 37.7 °F 28.0 °F 58% 30.14 in 10.0 mi ENE 6.9 mph - N/A   Clear
9:53 AM 48.0 °F - 19.9 °F 33% 30.14 in 10.0 mi North 10.4 mph - N/A   Clear
10:53 AM 51.1 °F - 21.9 °F 32% 30.13 in 10.0 mi Variable 6.9 mph - N/A   Clear
11:53 AM 53.1 °F - 23.0 °F 31% 30.12 in 10.0 mi Variable 6.9 mph - N/A   Clear
12:53 PM 55.0 °F - 18.0 °F 23% 30.08 in 10.0 mi West 9.2 mph - N/A   Clear
1:53 PM 55.9 °F - 18.0 °F 23% 30.08 in 10.0 mi West 4.6 mph - N/A   Clear
2:53 PM 57.0 °F - 18.0 °F 22% 30.06 in 10.0 mi WNW 8.1 mph - N/A   Clear
3:53 PM 59.0 °F - 18.0 °F 20% 30.05 in 10.0 mi North 6.9 mph - N/A   Clear
4:53 PM 57.9 °F - 18.0 °F 21% 30.04 in 10.0 mi Calm Calm - N/A   Clear
5:53 PM 59.0 °F - 17.1 °F 20% 30.03 in 10.0 mi NE 3.5 mph - N/A   Clear
6:53 PM 55.0 °F - 21.9 °F 28% 30.04 in 10.0 mi NNE 5.8 mph - N/A   Clear
7:53 PM 53.1 °F - 24.1 °F 32% 30.04 in 10.0 mi NE 4.6 mph - N/A   Clear
8:53 PM 52.0 °F - 24.1 °F 34% 30.04 in 10.0 mi NE 5.8 mph - N/A   Clear
9:53 PM 50.0 °F - 25.0 °F 38% 30.06 in 10.0 mi ENE 5.8 mph - N/A   Clear
11:53 PM 48.9 °F - 25.0 °F 39% 30.10 in 10.0 mi East 4.6 mph - N/A   Overcast